Overview Statistics Trail Chart Weather Telemetry Raw packets
 

This is the latest recevied weather packets stored in our database for station/object N9BLE. If no packets are shown the sender has not sent any weather packets the latest 10 day(s).

<< 41 42 43 44 45 46 47 >>
Time Temp. Humidity Pressure Rain* Wind** Luminosity Snow
1777767811 11.67° C 42% 1019.8 hPa 0 mm - 16 W/m² -
1777767507 11.67° C 40% 1019.9 hPa 0 mm - 20 W/m² -
1777767203 12.22° C 40% 1019.9 hPa 0 mm - 22 W/m² -
1777766901 12.22° C 40% 1020 hPa 0 mm - 24 W/m² -
1777766598 12.22° C 43% 1019.9 hPa 0 mm - 28 W/m² -
1777766295 12.22° C 40% 1019.8 hPa 0 mm - 32 W/m² -
1777765992 12.22° C 41% 1019.9 hPa 0 mm - 45 W/m² -
1777765689 12.22° C 42% 1020.2 hPa 0 mm - 53 W/m² -
1777765386 12.22° C 42% 1019.9 hPa 0 mm - 48 W/m² -
1777765082 12.22° C 44% 1020 hPa 0 mm - 33 W/m² -
1777764779 12.22° C 41% 1020 hPa 0 mm - 39 W/m² -
1777764475 12.22° C 42% 1020 hPa 0 mm - 57 W/m² -
1777764172 12.22° C 39% 1020.4 hPa 0 mm - 63 W/m² -
1777763868 12.22° C 43% 1020.2 hPa 0 mm - 45 W/m² -
1777763566 12.78° C 38% 1020.3 hPa 0 mm - 55 W/m² -
1777763265 12.78° C 40% 1020.4 hPa 0 mm - 74 W/m² -
1777762962 12.78° C 40% 1020.2 hPa 0 mm - 82 W/m² -
1777762659 12.78° C 39% 1020.3 hPa 0 mm - 77 W/m² -
1777762356 12.78° C 42% 1020.4 hPa 0 mm - 87 W/m² -
1777762052 12.78° C 39% 1020.5 hPa 0 mm - 93 W/m² -
1777761749 12.78° C 37% 1020.4 hPa 0 mm - 109 W/m² -
1777761446 12.78° C 39% 1020.6 hPa 0 mm - 107 W/m² -
1777761144 13.89° C 37% 1020.5 hPa 0 mm - 102 W/m² -
1777760842 15° C 38% 1020.5 hPa 0 mm - 317 W/m² -
1777760538 14.44° C 38% 1020.3 hPa 0 mm - 310 W/m² -

* Rain latest hour (hover to see other rain measurements)
** Current wind speed in m/s (hover to see current wind gust speed)